Date String (YYYY-MM-DD hh:mm:ss) UTC,Instrument flags,Ambient pressure (hPa),Sample flow (lpm),Bypass flow (lpm),Sample temperature (°C),Ambient temperature (°C),ASC tube jacket temperature (°C),LED temperature (°C),Box temperature (°C),Sample RH (%),Span deviation,Mass concentration (μg/m³),Mass concentration (μg/m³),Mass concentration (μg/m³)
DateTimeUTC,F1_M11,P_M11,Q1_M11,Q2_M11,T1_M11,T2_M11,T3_M11,T4_M11,T5_M11,U1_M11,ZSPAN_M11,X2_M11,X0_M11,X1_M11
2022-01-05 14:00:00,,0819.5,5.00,0.00,22.6,23.1,00.0,31.5,24.5,09.2,0000.0,0004.23,0009.33,0003.53
2022-01-05 14:01:00,,0819.5,4.99,0.00,22.7,23.2,00.0,31.6,24.6,09.2,0000.0,0004.24,0009.23,0003.54
2022-01-05 14:02:00,,0819.5,5.01,0.00,22.7,23.0,00.0,31.6,24.5,09.2,0000.0,0004.24,0008.69,0003.55
2022-01-05 14:03:00,,0819.4,4.99,0.00,22.7,22.7,00.0,31.6,24.5,09.2,0000.0,0004.19,0008.42,0003.54
2022-01-05 14:04:00,,0819.4,5.01,0.00,22.7,22.5,00.0,31.6,24.4,09.2,0000.0,0004.16,0008.31,0003.54
2022-01-05 14:05:00,,0819.2,4.99,0.00,22.6,22.3,00.0,31.6,24.3,09.1,0000.0,0004.10,0007.98,0003.51
2022-01-05 14:06:00,,0819.2,5.01,0.00,22.6,22.2,00.0,31.6,24.3,09.1,0000.0,0004.06,0007.92,0003.50
2022-01-05 14:07:00,,0819.3,4.99,0.00,22.6,22.1,00.0,31.6,24.3,09.1,0000.0,0003.96,0007.49,0003.45
2022-01-05 14:08:00,,0819.4,5.00,0.00,22.6,21.9,00.0,31.6,24.2,09.1,0000.0,0003.84,0007.29,0003.40
2022-01-05 14:09:00,,0819.4,5.01,0.00,22.5,21.9,00.0,31.5,24.1,09.2,0000.0,0003.72,0008.11,0003.34
2022-01-05 14:10:00,,0819.3,5.00,0.00,22.5,21.8,00.0,31.5,24.1,09.2,0000.0,0003.61,0007.78,0003.28
2022-01-05 14:11:00,,0819.3,4.99,0.00,22.5,21.7,00.0,31.5,24.1,09.2,0000.0,0003.52,0007.55,0003.22
2022-01-05 14:12:00,,0819.3,5.00,0.00,22.4,21.6,00.0,31.5,24.0,09.2,0000.0,0003.47,0007.44,0003.17
2022-01-05 14:13:00,,0819.2,5.02,0.00,22.4,21.6,00.0,31.5,24.0,09.2,0000.0,0003.41,0007.40,0003.11
2022-01-05 14:14:00,,0819.2,4.98,0.00,22.4,22.0,00.0,31.5,24.1,09.2,0000.0,0003.35,0007.25,0003.04
2022-01-05 14:15:00,,0819.1,5.00,0.00,22.6,22.8,00.0,31.5,24.4,09.1,0000.0,0003.31,0007.17,0002.96
2022-01-05 14:16:00,,0819.1,5.01,0.00,22.7,23.4,00.0,31.6,24.6,09.1,0000.0,0003.26,0007.58,0002.89
2022-01-05 14:17:00,,0819.0,5.00,0.00,22.8,23.2,00.0,31.6,24.6,09.0,0000.0,0003.23,0007.56,0002.84
2022-01-05 14:18:00,,0819.1,4.99,0.00,22.8,22.9,00.0,31.6,24.6,09.0,0000.0,0003.21,0007.41,0002.82
2022-01-05 14:19:00,,0819.1,5.01,0.00,22.7,22.7,00.0,31.6,24.5,09.0,0000.0,0003.19,0007.34,0002.79
2022-01-05 14:20:00,,0819.1,5.00,0.00,22.7,22.5,00.0,31.6,24.4,09.0,0000.0,0003.21,0005.48,0002.76
2022-01-05 14:21:00,,0819.1,4.99,0.00,22.7,22.3,00.0,31.6,24.3,09.1,0000.0,0003.19,0005.34,0002.75
2022-01-05 14:22:00,,0819.1,5.01,0.00,22.6,22.2,00.0,31.6,24.3,09.1,0000.0,0003.18,0005.34,0002.74
2022-01-05 14:23:00,,0819.0,4.99,0.00,22.6,22.0,00.0,31.6,24.2,09.1,0000.0,0003.17,0005.27,0002.75
2022-01-05 14:24:00,,0819.0,5.00,0.00,22.6,21.9,00.0,31.6,24.2,09.1,0000.0,0003.17,0005.24,0002.76
2022-01-05 14:25:00,,0819.0,5.00,0.00,22.5,21.8,00.0,31.5,24.1,09.2,0000.0,0003.17,0005.26,0002.77
2022-01-05 14:26:00,,0819.0,5.00,0.00,22.5,21.7,00.0,31.5,24.1,09.2,0000.0,0003.17,0005.24,0002.80
2022-01-05 14:27:00,,0819.0,5.01,0.00,22.4,21.6,00.0,31.5,24.1,09.2,0000.0,0003.19,0004.62,0002.81
2022-01-05 14:28:00,,0819.2,5.00,0.00,22.4,21.6,00.0,31.5,24.0,09.3,0000.0,0003.21,0004.56,0002.82
2022-01-05 14:29:00,,0819.1,4.99,0.00,22.5,22.1,00.0,31.5,24.1,09.2,0000.0,0003.24,0004.99,0002.85
2022-01-05 14:30:00,,0819.0,5.00,0.00,22.6,22.8,00.0,31.5,24.4,09.2,0000.0,0003.25,0005.12,0002.86
2022-01-05 14:31:00,,0818.9,5.02,0.00,22.7,23.3,00.0,31.6,24.6,09.2,0000.0,0003.24,0004.95,0002.87
2022-01-05 14:32:00,,0818.8,4.99,0.00,22.7,23.0,00.0,31.6,24.6,09.2,0000.0,0003.27,0005.04,0002.89
2022-01-05 14:33:00,,0818.7,5.01,0.00,22.7,22.7,00.0,31.6,24.4,09.2,0000.0,0003.29,0005.07,0002.92
2022-01-05 14:34:00,,0818.8,4.99,0.00,22.6,22.4,00.0,31.6,24.2,09.3,0000.0,0003.31,0005.10,0002.95
2022-01-05 14:35:00,,0818.9,5.00,0.00,22.5,22.1,00.0,31.6,24.0,09.3,0000.0,0003.30,0005.06,0002.95
2022-01-05 14:36:00,,0818.8,4.99,0.00,22.5,21.9,00.0,31.5,24.0,09.3,0000.0,0003.32,0005.13,0002.97
2022-01-05 14:37:00,,0818.5,5.00,0.00,22.4,21.8,00.0,31.5,23.9,09.4,0000.0,0003.34,0005.45,0002.97
2022-01-05 14:38:00,,0818.5,5.01,0.00,22.4,21.7,00.0,31.5,23.9,09.4,0000.0,0003.34,0005.45,0002.98
2022-01-05 14:39:00,,0818.5,5.00,0.00,22.3,21.6,00.0,31.5,23.9,09.4,0000.0,0003.35,0005.53,0002.97
2022-01-05 14:40:00,,0818.5,4.99,0.00,22.3,21.5,00.0,31.5,23.8,09.5,0000.0,0003.32,0005.29,0002.97
2022-01-05 14:41:00,,0818.5,5.01,0.00,22.3,21.5,00.0,31.4,23.8,09.5,0000.0,0003.34,0005.52,0002.99
2022-01-05 14:42:00,,0818.6,5.00,0.00,22.2,21.5,00.0,31.4,23.8,09.6,0000.0,0003.34,0005.48,0003.01
2022-01-05 14:43:00,,0818.8,5.00,0.00,22.3,22.1,00.0,31.4,24.0,09.6,0000.0,0003.33,0005.52,0003.02
2022-01-05 14:44:00,,0818.8,5.00,0.00,22.5,22.9,00.0,31.5,24.3,09.5,0000.0,0003.32,0005.47,0003.04
2022-01-05 14:45:00,,0818.8,5.00,0.00,22.6,23.1,00.0,31.5,24.4,09.5,0000.0,0003.39,0005.68,0003.10
2022-01-05 14:46:00,,0818.6,4.99,0.00,22.6,22.9,00.0,31.5,24.4,09.5,0000.0,0003.44,0006.67,0003.13
2022-01-05 14:47:00,,0818.5,5.01,0.00,22.6,22.7,00.0,31.5,24.3,09.5,0000.0,0003.46,0007.35,0003.15
2022-01-05 14:48:00,,0818.5,5.01,0.00,22.6,22.5,00.0,31.5,24.3,09.6,0000.0,0003.49,0007.76,0003.18
2022-01-05 14:49:00,,0818.7,5.00,0.00,22.5,22.3,00.0,31.5,24.2,09.6,0000.0,0003.52,0007.74,0003.21
2022-01-05 14:50:00,,0818.7,5.01,0.00,22.5,22.1,00.0,31.5,24.1,09.7,0000.0,0003.54,0007.67,0003.26
2022-01-05 14:51:00,,0818.6,4.99,0.00,22.4,22.0,00.0,31.5,24.0,09.8,0000.0,0003.59,0007.63,0003.29
2022-01-05 14:52:00,,0818.5,5.00,0.00,22.4,21.8,00.0,31.5,24.0,09.9,0000.0,0003.64,0007.53,0003.35
2022-01-05 14:53:00,,0818.4,5.00,0.00,22.4,21.7,00.0,31.4,24.0,10.0,0000.0,0003.66,0007.68,0003.37
2022-01-05 14:54:00,,0818.4,5.00,0.00,22.3,21.6,00.0,31.4,23.9,10.1,0000.0,0003.70,0008.48,0003.39
2022-01-05 14:55:00,,0818.4,5.01,0.00,22.3,21.5,00.0,31.4,23.9,10.2,0000.0,0003.74,0008.99,0003.41
2022-01-05 14:56:00,,0818.4,5.00,0.00,22.3,21.5,00.0,31.4,23.9,10.3,0000.0,0003.73,0009.15,0003.41
2022-01-05 14:57:00,,0818.3,4.98,0.00,22.3,22.0,00.0,31.4,24.0,10.3,0000.0,0003.72,0008.72,0003.42
2022-01-05 14:58:00,,0818.2,5.01,0.00,22.5,22.8,00.0,31.4,24.3,10.3,0000.0,0003.71,0008.26,0003.43
2022-01-05 14:59:00,,0818.1,5.01,0.00,22.6,23.5,00.0,31.5,24.5,10.3,0000.0,0003.72,0008.09,0003.45
